Location: Ku?niki
(51.4449°N, 17.8974°E)
Time: 10:51:53
(UTC+00:00)

POLYITAN 1 - Pass Details

Date: 28 June 2022
Orbit: 586 x 604 km, 98.0° (Epoch: 10 August)

Event Time Altitude Azimuth Distance (km) Brightness Sun altitude
Rises 00:44:41 0° 14° (NNE) 2,856 ? -11.3°
Reaches altitude 10° 00:46:51 10° 16° (NNE) 1,951 ? -11.1°
Maximum altitude 00:51:06 83° 103° (ESE) 613 ? -10.8°
Enters shadow 00:54:47 14° 193° (SSW) 1,717 ? -10.5°
